Sydney, New South Wales

5:22 AM AEST on September 29, 2016 (GMT +1000)
Sydney

Weather History for 94767 - February, 2014

Change the Weather History Date:

Thursday, February 13, 2014

  Actual Average Record
Temperature  
Mean Temperature 78 °F -  
Max Temperature 85 °F - - ()
Min Temperature 70 °F - - ()
Cooling Degree Days 12    
Growing Degree Days 28 (Base 50)    
Moisture  
Dew Point 64 °F    
Average Humidity 64    
Maximum Humidity 94    
Minimum Humidity 32    
Precipitation  
Precipitation 0.00 in - - ()
Sea Level Pressure  
Sea Level Pressure 29.92 in    
Wind  
Wind Speed 10 mph ()    
Max Wind Speed 22 mph    
Max Gust Speed -    
Visibility 7.1 miles    
Events Rain    
T = Trace of Precipitation, MM = Missing Value Source: Averaged Metar Reports

Daily Weather History Graph

Daily Weather History Graph

Search for Another Location

Airport or City:

Trip Planner

Search our weather history database for the weather conditions in past years. The results will help you decide how hot, cold, wet, or windy it might be!

Date:

Astronomy

Feb. 13, 2014 Rise Set
Actual Time 6:28 AM AEDT 7:50 PM AEDT
Civil Twilight 6:01 AM AEDT 8:16 PM AEDT
Nautical Twilight 5:30 AM AEDT 8:48 PM AEDT
Astronomical Twilight 4:57 AM AEDT 9:20 PM AEDT
Moon 6:29 PM AEDT (2/13) 4:42 AM AEDT (2/13)
Length of Visible Light 14h 14m
Length of Day
13h 22m
Waxing Gibbous, 97% of the Moon is Illuminated
Feb 13
Waxing Gibbous
Feb 15
Full
Feb 23
Last Quarter
Mar 1
New
Mar 9
First Quarter

Hourly Weather History & Observations

Time (AEDT) Temp. Heat Index Dew Point Humidity Pressure Visibility Wind Dir Wind Speed Gust Speed Precip Events Conditions
12:00 AM 72 °F - 70 °F 90% 30.04 in 6 mi NE 9.2 mph - - Rain Light Drizzle
12:00 AM 71.6 °F - 69.8 °F 94% 30.04 in 5.0 mi NE 9.2 mph - N/A   Light Drizzle
12:30 AM 71.6 °F - 69.8 °F 94% 30.01 in 6.2 mi ENE 10.4 mph - N/A   Light Drizzle
1:00 AM 73 °F - 69 °F 85% 30.02 in - NE 8.1 mph - -  
1:00 AM 73.4 °F - 69.8 °F 88% 30.01 in 6.2 mi NE 8.1 mph - N/A   Mostly Cloudy
1:30 AM 73.4 °F - 68.0 °F 83% 30.01 in 6.2 mi NNE 8.1 mph - N/A   Mostly Cloudy
2:00 AM 73 °F - 67 °F 77% 30.00 in - NNE 6.9 mph - -  
2:00 AM 73.4 °F - 68.0 °F 83% 29.98 in 6.2 mi NNE 6.9 mph - N/A   Mostly Cloudy
2:30 AM 73.4 °F - 66.2 °F 78% 29.98 in 6.2 mi NE 6.9 mph - N/A   Mostly Cloudy
3:00 AM 73 °F - 65 °F 70% 29.98 in 11 mi NNE 5.8 mph - -   Mostly Cloudy
3:00 AM 73.4 °F - 64.4 °F 73% 29.98 in 6.2 mi NNE 5.8 mph - N/A   Mostly Cloudy
3:30 AM 73.4 °F - 66.2 °F 78% 29.95 in 6.2 mi NE 5.8 mph - N/A   Mostly Cloudy
4:00 AM 72 °F - 65 °F 74% 29.96 in - NE 5.8 mph - -  
4:00 AM 71.6 °F - 66.2 °F 83% 29.95 in 6.2 mi NE 5.8 mph - N/A   Mostly Cloudy
4:30 AM 71.6 °F - 64.4 °F 78% 29.95 in 6.2 mi NE 4.6 mph - N/A   Mostly Cloudy
5:00 AM 71 °F - 66 °F 80% 29.96 in - NE 4.6 mph - -  
5:00 AM 71.6 °F - 66.2 °F 83% 29.95 in 6.2 mi NE 4.6 mph - N/A   Mostly Cloudy
5:30 AM 71.6 °F - 66.2 °F 83% 29.95 in 6.2 mi NE 4.6 mph - N/A   Mostly Cloudy
6:00 AM 71 °F - 66 °F 81% 29.97 in 9 mi NNE 3.5 mph - -   Haze
6:00 AM 71.6 °F - 66.2 °F 83% 29.95 in 6.2 mi NNE 3.5 mph - N/A   Mostly Cloudy
6:30 AM 71.6 °F - 66.2 °F 83% 29.95 in 6.2 mi NE 5.8 mph - N/A   Mostly Cloudy
7:00 AM 72 °F - 66 °F 75% 29.98 in - NNE 3.5 mph - -  
7:00 AM 71.6 °F - 66.2 °F 83% 29.98 in 6.2 mi NNE 3.5 mph - N/A   Mostly Cloudy
7:30 AM 73.4 °F - 66.2 °F 78% 29.98 in 6.2 mi NE 4.6 mph - N/A   Scattered Clouds
8:00 AM 75 °F - 65 °F 65% 29.98 in - NNE 6.9 mph - -  
8:00 AM 75.2 °F - 66.2 °F 73% 29.98 in 6.2 mi NNE 6.9 mph - N/A   Scattered Clouds
8:30 AM 77.0 °F - 64.4 °F 65% 29.98 in 6.2 mi NE 10.4 mph - N/A   Mostly Cloudy
9:00 AM 78 °F - 64 °F 52% 29.98 in 12 mi NNE 12.7 mph - -   Haze
9:00 AM 78.8 °F - 64.4 °F 61% 29.98 in 6.2 mi NNE 12.7 mph - N/A   Scattered Clouds
9:30 AM 78.8 °F - 64.4 °F 61% 29.98 in 6.2 mi NE 11.5 mph - N/A   Mostly Cloudy
10:00 AM 81 °F - 63 °F 44% 29.97 in - NNE 12.7 mph - -  
10:00 AM 80.6 °F 81.8 °F 62.6 °F 54% 29.95 in 6.2 mi NNE 12.7 mph - N/A   Mostly Cloudy
10:30 AM 80.6 °F 81.8 °F 62.6 °F 54% 29.95 in 6.2 mi NNE 15.0 mph - N/A   Mostly Cloudy
11:00 AM 80 °F - 61 °F 43% 29.95 in - NNE 15.0 mph - -  
11:00 AM 80.6 °F 81.5 °F 60.8 °F 51% 29.95 in 6.2 mi NNE 15.0 mph - N/A   Mostly Cloudy
11:30 AM 82.4 °F 82.0 °F 57.2 °F 42% 29.92 in 6.2 mi NE 16.1 mph - N/A   Mostly Cloudy
12:00 PM 83 °F - 59 °F 34% 29.93 in 12 mi NE 18.4 mph - -   Haze
12:00 PM 82.4 °F 82.5 °F 59.0 °F 45% 29.92 in 6.2 mi NE 18.4 mph - N/A   Mostly Cloudy
12:30 PM 84.2 °F 83.5 °F 57.2 °F 40% 29.89 in 6.2 mi NE 17.3 mph - N/A   Overcast
1:00 PM 83 °F - 58 °F 32% 29.90 in - NE 18.4 mph - -  
1:00 PM 82.4 °F 82.0 °F 57.2 °F 42% 29.89 in 6.2 mi NE 18.4 mph - N/A   Overcast
1:30 PM 82.4 °F 82.5 °F 59.0 °F 45% 29.89 in - ENE 18.4 mph - N/A   Clear
2:00 PM 80 °F - 59 °F 38% 29.88 in - NE 19.6 mph - -  
2:00 PM 80.6 °F 81.1 °F 59.0 °F 48% 29.86 in - NE 19.6 mph - N/A   Clear
2:30 PM 80.6 °F 81.5 °F 60.8 °F 51% 29.86 in - ENE 19.6 mph - N/A   Clear
3:00 PM 85 °F - 60 °F 33% 29.86 in 16 mi ENE 19.6 mph - -   Partly Cloudy
3:00 PM 84.2 °F 84.4 °F 60.8 °F 45% 29.86 in - ENE 19.6 mph - N/A   Clear
3:30 PM 80.6 °F 82.3 °F 64.4 °F 58% 29.83 in - ENE 21.9 mph - N/A   Clear
4:00 PM 79 °F - 64 °F 52% 29.85 in - ENE 21.9 mph - -  
4:00 PM 78.8 °F - 64.4 °F 61% 29.83 in - ENE 21.9 mph - N/A   Clear
4:30 PM 78.8 °F - 64.4 °F 61% 29.83 in 6.2 mi ENE 21.9 mph - N/A   Mostly Cloudy
5:00 PM 77 °F - 64 °F 54% 29.84 in - ENE 21.9 mph - -  
5:00 PM 77.0 °F - 64.4 °F 65% 29.83 in 6.2 mi ENE 21.9 mph - N/A   Mostly Cloudy
5:30 PM 77.0 °F - 64.4 °F 65% 29.83 in 6.2 mi NE 19.6 mph - N/A   Mostly Cloudy
6:00 PM 77 °F - 65 °F 57% 29.84 in 16 mi NE 18.4 mph - -   Haze
6:00 PM 77.0 °F - 64.4 °F 65% 29.83 in 6.2 mi NE 18.4 mph - N/A   Mostly Cloudy
6:30 PM 77.0 °F - 64.4 °F 65% 29.80 in 6.2 mi NE 21.9 mph - N/A   Overcast
7:00 PM 77 °F - 65 °F 57% 29.83 in - NE 19.6 mph - -  
7:00 PM 77.0 °F - 64.4 °F 65% 29.83 in 6.2 mi NE 19.6 mph - N/A   Overcast
7:30 PM 77.0 °F - 64.4 °F 65% 29.83 in 6.2 mi NE 17.3 mph - N/A   Overcast
8:00 PM 76 °F - 64 °F 58% 29.86 in - NNE 13.8 mph - -  
8:00 PM 75.2 °F - 64.4 °F 69% 29.86 in 6.2 mi NNE 13.8 mph - N/A   Overcast
8:30 PM 77.0 °F - 62.6 °F 61% 29.86 in 6.2 mi NNE 13.8 mph - N/A   Overcast
9:00 PM 76 °F - 63 °F 55% 29.89 in 16 mi NNE 15.0 mph - - Rain Light Drizzle
9:00 PM 77.0 °F - 62.6 °F 61% 29.89 in 6.2 mi NNE 15.0 mph - N/A   Light Drizzle
9:30 PM 75.2 °F - 62.6 °F 65% 29.89 in 6.2 mi North 13.8 mph - N/A Rain Light Rain
10:00 PM 74 °F - 63 °F 61% 29.91 in - NNE 8.1 mph - -  
10:00 PM 73.4 °F - 62.6 °F 69% 29.89 in 6.2 mi NNE 8.1 mph - N/A   Mostly Cloudy
10:30 PM 75.2 °F - 64.4 °F 69% 29.89 in 6.2 mi North 5.8 mph - N/A Rain Light Rain Showers
11:00 PM 74 °F - 64 °F 63% 29.89 in - NNE 8.1 mph - -  
11:00 PM 73.4 °F - 64.4 °F 73% 29.89 in 6.2 mi NNE 8.1 mph - N/A   Light Drizzle
11:30 PM 73.4 °F - 62.6 °F 69% 29.86 in 6.2 mi NE 6.9 mph - N/A   Mostly Cloudy